,,Stat6,,Stat2,,Stat8,,Stat9,,Stat10,,Wind1,,Wind1,
time,status,PA1M_AVG,status,PR1M_SUM,status,RH1M_AVG,status,SR1M_AVG,status,TA1M_AVG,status,W1dAve1m,status,W1sAve1m,
2004-03-26, 00:00:00,VALID,917.92,VALID,0,VALID,96.1638,VALID,-0.0169808,VALID,19.9173,VALID,6,VALID,0,
2004-03-26, 00:01:00,VALID,917.918,VALID,0,VALID,95.8357,VALID,-0.0169808,VALID,19.9039,VALID,6,VALID,0,
2004-03-26, 00:02:00,VALID,917.917,VALID,0,VALID,95.8269,VALID,0,VALID,19.9039,VALID,6,VALID,0,
2004-03-26, 00:03:00,VALID,917.908,VALID,0,VALID,95.8332,VALID,0,VALID,19.9037,VALID,6,VALID,0,
2004-03-26, 00:04:00,VALID,917.896,VALID,0,VALID,95.9438,VALID,0,VALID,19.9265,VALID,6,VALID,0,
2004-03-26, 00:05:00,VALID,917.885,VALID,0,VALID,96.1778,VALID,0,VALID,19.9521,VALID,6,VALID,0,
2004-03-26, 00:06:00,VALID,917.872,VALID,0,VALID,96.2414,VALID,0.0169808,VALID,19.9744,VALID,6,VALID,0,
2004-03-26, 00:07:00,VALID,917.866,VALID,0,VALID,95.7455,VALID,0.0339617,VALID,19.9715,VALID,6,VALID,0,
2004-03-26, 00:08:00,VALID,917.862,VALID,0,VALID,94.4942,VALID,0,VALID,19.8652,VALID,6,VALID,0,
2004-03-26, 00:09:00,VALID,917.867,VALID,0,VALID,94.7498,VALID,0.0339617,VALID,19.8095,VALID,6,VALID,0,
2004-03-26, 00:10:00,VALID,917.875,VALID,0,VALID,95.6857,VALID,0.0169808,VALID,19.8612,VALID,6,VALID,0.0952381,
2004-03-26, 00:11:00,VALID,917.887,VALID,0,VALID,96.4665,VALID,0.0169808,VALID,19.9655,VALID,6,VALID,0.0114694,
2004-03-26, 00:12:00,VALID,917.899,VALID,0,VALID,96.9624,VALID,0,VALID,20.0363,VALID,6,VALID,0,
2004-03-26, 00:13:00,VALID,917.902,VALID,0,VALID,96.7144,VALID,0.0169808,VALID,20.049,VALID,6,VALID,0,
2004-03-26, 00:14:00,VALID,917.876,VALID,0,VALID,96.5911,VALID,0,VALID,20.0492,VALID,6,VALID,0,
2004-03-26, 00:15:00,VALID,917.867,VALID,0,VALID,96.5059,VALID,0.0339617,VALID,20.0363,VALID,6,VALID,0,
2004-03-26, 00:16:00,VALID,917.848,VALID,0,VALID,96.0608,VALID,0.0169808,VALID,19.9913,VALID,23,VALID,0.179874,
2004-03-26, 00:17:00,VALID,917.824,VALID,0,VALID,95.6895,VALID,0,VALID,19.894,VALID,73,VALID,0.467035,
2004-03-26, 00:18:00,VALID,917.806,VALID,0,VALID,95.8815,VALID,0,VALID,19.8294,VALID,73,VALID,0.451265,
2004-03-26, 00:19:00,VALID,917.793,VALID,0,VALID,95.8141,VALID,-0.0169808,VALID,19.7785,VALID,73,VALID,0.263021,
2004-03-26, 00:20:00,VALID,917.771,VALID,0,VALID,96.0201,VALID,0.0169808,VALID,19.7161,VALID,73,VALID,0.190225,
2004-03-26, 00:21:00,VALID,917.761,VALID,0,VALID,96.3495,VALID,0.0169808,VALID,19.6975,VALID,73,VALID,0.0332031,
2004-03-26, 00:22:00,VALID,917.75,VALID,0,VALID,96.9204,VALID,0,VALID,19.7141,VALID,73,VALID,0.173735,
2004-03-26, 00:23:00,VALID,917.755,VALID,0,VALID,96.6394,VALID,0.0169808,VALID,19.6975,VALID,73,VALID,0.0133681,
2004-03-26, 00:24:00,VALID,917.754,VALID,0,VALID,95.5598,VALID,0.0339617,VALID,19.5944,VALID,73,VALID,0.0475543,
2004-03-26, 00:25:00,VALID,917.763,VALID,0,VALID,95.3487,VALID,0.0339617,VALID,19.4809,VALID,73,VALID,0,
2004-03-26, 00:26:00,VALID,917.758,VALID,0,VALID,96.2414,VALID,0.0679233,VALID,19.472,VALID,73,VALID,0.0687145,
2004-03-26, 00:27:00,VALID,917.774,VALID,0,VALID,96.7449,VALID,0.0169808,VALID,19.4777,VALID,73,VALID,0.0912109,
2004-03-26, 00:28:00,VALID,917.783,VALID,0,VALID,97.2714,VALID,0,VALID,19.4938,VALID,73,VALID,0.108803,
2004-03-26, 00:29:00,VALID,917.801,VALID,0,VALID,97.5906,VALID,0.0169808,VALID,19.5227,VALID,73,VALID,0.159624,
2004-03-26, 00:30:00,VALID,917.813,VALID,0,VALID,97.5855,VALID,0.0169808,VALID,19.5356,VALID,73,VALID,0.250586,
2004-03-26, 00:31:00,VALID,917.82,VALID,0,VALID,97.6605,VALID,-0.0169808,VALID,19.5204,VALID,73,VALID,0.0199855,
2004-03-26, 00:32:00,VALID,917.818,VALID,0,VALID,97.3439,VALID,-0.101885,VALID,19.4697,VALID,73,VALID,0,
2004-03-26, 00:33:00,VALID,917.813,VALID,0,VALID,97.8716,VALID,-0.101885,VALID,19.4603,VALID,73,VALID,0,
2004-03-26, 00:34:00,VALID,917.82,VALID,0,VALID,97.8474,VALID,-0.0679233,VALID,19.46,VALID,73,VALID,0,
2004-03-26, 00:35:00,VALID,917.805,VALID,0,VALID,98.5137,VALID,-0.0849042,VALID,19.5187,VALID,73,VALID,0,
2004-03-26, 00:36:00,VALID,917.795,VALID,0,VALID,98.997,VALID,-0.0849042,VALID,19.6088,VALID,73,VALID,0,
2004-03-26, 00:37:00,VALID,917.79,VALID,0,VALID,99.1394,VALID,-0.101885,VALID,19.6667,VALID,73,VALID,0,
2004-03-26, 00:38:00,VALID,917.793,VALID,0,VALID,99.0669,VALID,-0.0849042,VALID,19.6995,VALID,73,VALID,0,
2004-03-26, 00:39:00,VALID,917.791,VALID,0,VALID,99.3263,VALID,-0.101885,VALID,19.7544,VALID,73,VALID,0,
2004-03-26, 00:40:00,VALID,917.793,VALID,0,VALID,99.3136,VALID,-0.101885,VALID,19.7961,VALID,73,VALID,0,
2004-03-26, 00:41:00,VALID,917.806,VALID,0,VALID,99.1585,VALID,-0.101885,VALID,19.8155,VALID,73,VALID,0,
2004-03-26, 00:42:00,VALID,917.814,VALID,0,VALID,99.0262,VALID,-0.101885,VALID,19.8381,VALID,73,VALID,0.00545058,
2004-03-26, 00:43:00,VALID,917.811,VALID,0,VALID,98.8978,VALID,-0.0849042,VALID,19.8644,VALID,73,VALID,0,
2004-03-26, 00:44:00,VALID,917.811,VALID,0,VALID,98.8189,VALID,-0.118866,VALID,19.8801,VALID,73,VALID,0,
2004-03-26, 00:45:00,VALID,917.791,VALID,0,VALID,98.7172,VALID,-0.101885,VALID,19.932,VALID,73,VALID,0,
2004-03-26, 00:46:00,VALID,917.786,VALID,0,VALID,98.777,VALID,-0.0509425,VALID,19.9794,VALID,73,VALID,0,
2004-03-26, 00:47:00,VALID,917.766,VALID,0,VALID,98.9512,VALID,0,VALID,20.0467,VALID,73,VALID,0.10174,
2004-03-26, 00:48:00,VALID,917.742,VALID,0,VALID,98.6574,VALID,0,VALID,20.0659,VALID,73,VALID,0.0665064,
2004-03-26, 00:49:00,VALID,917.741,VALID,0,VALID,98.3917,VALID,0,VALID,20.0368,VALID,73,VALID,0.136083,
2004-03-26, 00:50:00,VALID,917.741,VALID,0,VALID,98.4781,VALID,0,VALID,20.0077,VALID,73,VALID,0.105469,
2004-03-26, 00:51:00,VALID,917.731,VALID,0,VALID,98.6689,VALID,0,VALID,20.0179,VALID,73,VALID,0.131696,
2004-03-26, 00:52:00,VALID,917.743,VALID,0,VALID,98.5112,VALID,0.0169808,VALID,20.0015,VALID,73,VALID,0.290104,
2004-03-26, 00:53:00,VALID,917.739,VALID,0,VALID,98.3612,VALID,0,VALID,19.9432,VALID,73,VALID,0.33346,
2004-03-26, 00:54:00,VALID,917.735,VALID,0,VALID,98.5913,VALID,-0.0169808,VALID,19.9141,VALID,81,VALID,0.413281,
2004-03-26, 00:55:00,VALID,917.709,VALID,0,VALID,98.4781,VALID,0,VALID,19.898,VALID,108,VALID,0.505632,
2004-03-26, 00:56:00,VALID,917.699,VALID,0,VALID,98.1857,VALID,0,VALID,19.8299,VALID,108,VALID,0.534766,
2004-03-26, 00:57:00,VALID,917.664,VALID,0,VALID,97.9962,VALID,0,VALID,19.7663,VALID,108,VALID,0.385603,
2004-03-26, 00:58:00,VALID,917.625,VALID,0,VALID,97.7444,VALID,-0.0339617,VALID,19.6821,VALID,108,VALID,0.540968,
2004-03-26, 00:59:00,VALID,917.602,VALID,0,VALID,97.8118,VALID,0.0169808,VALID,19.6232,VALID,108,VALID,0.527435,
2004-03-26, 01:00:00,VALID,917.579,VALID,0,VALID,97.9746,VALID,0.0169808,VALID,19.6208,VALID,108,VALID,0.447856,
2004-03-26, 01:01:00,VALID,917.585,VALID,0,VALID,98.3116,VALID,-0.0339617,VALID,19.6247,VALID,108,VALID,0.424782,
2004-03-26, 01:02:00,VALID,917.586,VALID,0,VALID,98.59,VALID,-0.101885,VALID,19.6508,VALID,108,VALID,0.26527,
2004-03-26, 01:03:00,VALID,917.594,VALID,0,VALID,98.6918,VALID,-0.0849042,VALID,19.6699,VALID,108,VALID,0.0704901,
2004-03-26, 01:04:00,VALID,917.605,VALID,0,VALID,98.7515,VALID,-0.101885,VALID,19.6828,VALID,108,VALID,0.0597747,
2004-03-26, 01:05:00,VALID,917.607,VALID,0,VALID,98.8889,VALID,-0.101885,VALID,19.7154,VALID,108,VALID,0,
2004-03-26, 01:06:00,VALID,917.613,VALID,0,VALID,99.0173,VALID,-0.101885,VALID,19.7452,VALID,108,VALID,0,
2004-03-26, 01:07:00,VALID,917.616,VALID,0,VALID,99.0555,VALID,-0.101885,VALID,19.7743,VALID,108,VALID,0,
2004-03-26, 01:08:00,VALID,917.641,VALID,0,VALID,99.1267,VALID,-0.118866,VALID,19.7805,VALID,108,VALID,0,
2004-03-26, 01:09:00,VALID,917.638,VALID,0,VALID,99.0936,VALID,-0.118866,VALID,19.7902,VALID,108,VALID,0,
2004-03-26, 01:10:00,VALID,917.648,VALID,0,VALID,99.1864,VALID,-0.118866,VALID,19.809,VALID,108,VALID,0,
2004-03-26, 01:11:00,VALID,917.624,VALID,0,VALID,99.1788,VALID,-0.118866,VALID,19.8257,VALID,108,VALID,0,
2004-03-26, 01:12:00,VALID,917.616,VALID,0,VALID,98.9525,VALID,-0.101885,VALID,19.7802,VALID,108,VALID,0,
2004-03-26, 01:13:00,VALID,917.603,VALID,0,VALID,99.1661,VALID,-0.0849042,VALID,19.7837,VALID,108,VALID,0,
2004-03-26, 01:14:00,VALID,917.584,VALID,0,VALID,99.3225,VALID,-0.101885,VALID,19.8321,VALID,108,VALID,0,
2004-03-26, 01:15:00,VALID,917.564,VALID,0,VALID,99.1127,VALID,-0.118866,VALID,19.823,VALID,108,VALID,0,
2004-03-26, 01:16:00,VALID,917.566,VALID,0,VALID,98.9537,VALID,-0.0509425,VALID,19.7929,VALID,108,VALID,0,
2004-03-26, 01:17:00,VALID,917.555,VALID,0,VALID,98.7019,VALID,-0.0169808,VALID,19.74,VALID,108,VALID,0,
2004-03-26, 01:18:00,VALID,917.561,VALID,0,VALID,97.7419,VALID,0,VALID,19.6237,VALID,108,VALID,0,
2004-03-26, 01:19:00,VALID,917.569,VALID,0,VALID,97.0934,VALID,-0.0169808,VALID,19.4593,VALID,108,VALID,0.0505087,
2004-03-26, 01:20:00,VALID,917.57,VALID,0,VALID,97.3413,VALID,0,VALID,19.388,VALID,108,VALID,0.290777,
2004-03-26, 01:21:00,VALID,917.567,VALID,0,VALID,97.7228,VALID,-0.0169808,VALID,19.3659,VALID,108,VALID,0.203488,
2004-03-26, 01:22:00,VALID,917.578,VALID,0,VALID,98.1577,VALID,-0.0339617,VALID,19.4081,VALID,108,VALID,0.0295351,
2004-03-26, 01:23:00,VALID,917.576,VALID,0,VALID,98.4069,VALID,0,VALID,19.4233,VALID,108,VALID,0,
2004-03-26, 01:24:00,VALID,917.571,VALID,0,VALID,98.6409,VALID,0,VALID,19.4717,VALID,108,VALID,0,
2004-03-26, 01:25:00,VALID,917.564,VALID,0,VALID,98.9359,VALID,0,VALID,19.5569,VALID,108,VALID,0.0146949,
2004-03-26, 01:26:00,VALID,917.564,VALID,0,VALID,99.2653,VALID,-0.0169808,VALID,19.6399,VALID,108,VALID,0.169085,
2004-03-26, 01:27:00,VALID,917.535,VALID,0,VALID,99.4077,VALID,-0.0169808,VALID,19.7139,VALID,108,VALID,0.0257994,
2004-03-26, 01:28:00,VALID,917.549,VALID,0,VALID,99.47,VALID,-0.0169808,VALID,19.7921,VALID,108,VALID,0.0773983,
2004-03-26, 01:29:00,VALID,917.528,VALID,0,VALID,99.4382,VALID,-0.0169808,VALID,19.8406,VALID,108,VALID,0,
2004-03-26, 01:30:00,VALID,917.509,VALID,0,VALID,99.3072,VALID,0,VALID,19.8726,VALID,108,VALID,0,
2004-03-26, 01:31:00,VALID,917.493,VALID,0,VALID,98.749,VALID,0,VALID,19.8403,VALID,108,VALID,0,
2004-03-26, 01:32:00,VALID,917.453,VALID,0,VALID,98.6333,VALID,0,VALID,19.8115,VALID,108,VALID,0,
2004-03-26, 01:33:00,VALID,917.427,VALID,0,VALID,98.618,VALID,0,VALID,19.7984,VALID,108,VALID,0.0139266,
2004-03-26, 01:34:00,VALID,917.393,VALID,0,VALID,98.3027,VALID,0,VALID,19.7626,VALID,108,VALID,0.287305,
2004-03-26, 01:35:00,VALID,917.362,VALID,0,VALID,97.5499,VALID,0,VALID,19.6694,VALID,81,VALID,0.505859,
2004-03-26, 01:36:00,VALID,917.317,VALID,0,VALID,97.4736,VALID,0.0169808,VALID,19.6076,VALID,62,VALID,0.359189,
2004-03-26, 01:37:00,VALID,917.288,VALID,0,VALID,97.7012,VALID,0,VALID,19.5982,VALID,62,VALID,0.33125,
2004-03-26, 01:38:00,VALID,917.26,VALID,0,VALID,98.1323,VALID,0,VALID,19.6468,VALID,62,VALID,0.174716,
2004-03-26, 01:39:00,VALID,917.235,VALID,0,VALID,98.4629,VALID,-0.0339617,VALID,19.6751,VALID,62,VALID,0,
2004-03-26, 01:40:00,VALID,917.22,VALID,0,VALID,98.796,VALID,0,VALID,19.7467,VALID,62,VALID,0,
2004-03-26, 01:41:00,VALID,917.199,VALID,0,VALID,98.7821,VALID,0,VALID,19.782,VALID,62,VALID,0,
2004-03-26, 01:42:00,VALID,917.199,VALID,0,VALID,98.8634,VALID,0,VALID,19.7916,VALID,62,VALID,0.170573,
2004-03-26, 01:43:00,VALID,917.19,VALID,0,VALID,98.8342,VALID,0.0169808,VALID,19.8075,VALID,62,VALID,0.237805,
2004-03-26, 01:44:00,VALID,917.186,VALID,0,VALID,98.7363,VALID,0,VALID,19.821,VALID,62,VALID,0.365371,
2004-03-26, 01:45:00,VALID,917.166,VALID,0,VALID,98.7147,VALID,0,VALID,19.7974,VALID,62,VALID,0.391741,
2004-03-26, 01:46:00,VALID,917.134,VALID,0,VALID,98.3828,VALID,-0.0509425,VALID,19.7695,VALID,62,VALID,0.310138,
2004-03-26, 01:47:00,VALID,917.097,VALID,0,VALID,97.8487,VALID,-0.101885,VALID,19.6737,VALID,61,VALID,0.824049,
2004-03-26, 01:48:00,VALID,917.054,VALID,0,VALID,98.206,VALID,-0.101885,VALID,19.6739,VALID,64,VALID,1.11395,
2004-03-26, 01:49:00,VALID,917.013,VALID,0,VALID,98.9525,VALID,-0.101885,VALID,19.7444,VALID,78,VALID,1.01048,
2004-03-26, 01:50:00,VALID,916.981,VALID,0,VALID,99.3339,VALID,-0.101885,VALID,19.8453,VALID,84,VALID,0.872692,
2004-03-26, 01:51:00,VALID,916.95,VALID,0,VALID,99.2144,VALID,-0.101885,VALID,19.8836,VALID,84,VALID,0.645833,
2004-03-26, 01:52:00,VALID,916.935,VALID,0,VALID,99.0351,VALID,-0.101885,VALID,19.8736,VALID,84,VALID,0.506098,
2004-03-26, 01:53:00,VALID,916.93,VALID,0,VALID,98.9334,VALID,-0.0849042,VALID,19.8642,VALID,84,VALID,0.405705,
2004-03-26, 01:54:00,VALID,916.936,VALID,0,VALID,98.6587,VALID,-0.101885,VALID,19.822,VALID,84,VALID,0.386628,
2004-03-26, 01:55:00,VALID,916.956,VALID,0,VALID,98.6282,VALID,-0.101885,VALID,19.8001,VALID,84,VALID,0.623326,
2004-03-26, 01:56:00,VALID,916.97,VALID,0,VALID,98.7782,VALID,-0.101885,VALID,19.8157,VALID,84,VALID,0.743832,
2004-03-26, 01:57:00,VALID,916.98,VALID,0,VALID,98.6905,VALID,-0.101885,VALID,19.8093,VALID,82,VALID,0.792878,
2004-03-26, 01:58:00,VALID,916.984,VALID,0,VALID,98.7032,VALID,-0.0849042,VALID,19.7993,VALID,79,VALID,0.799023,
2004-03-26, 01:59:00,VALID,916.966,VALID,0,VALID,98.6447,VALID,-0.0679233,VALID,19.7892,VALID,77,VALID,0.746528,
2004-03-26, 02:00:00,VALID,916.946,VALID,0,VALID,98.6104,VALID,-0.101885,VALID,19.7797,VALID,71,VALID,0.848837,
2004-03-26, 02:01:00,VALID,916.921,VALID,0,VALID,98.618,VALID,-0.0169808,VALID,19.7688,VALID,71,VALID,0.606105,
2004-03-26, 02:02:00,VALID,916.892,VALID,0,VALID,98.6778,VALID,0.0169808,VALID,19.7718,VALID,74,VALID,0.596413,
2004-03-26, 02:03:00,VALID,916.869,VALID,0,VALID,98.8075,VALID,0,VALID,19.7849,VALID,80,VALID,0.479911,
2004-03-26, 02:04:00,VALID,916.84,VALID,0,VALID,98.8927,VALID,0,VALID,19.8046,VALID,80,VALID,0.481836,
2004-03-26, 02:05:00,VALID,916.804,VALID,0,VALID,98.7693,VALID,0.0339617,VALID,19.7812,VALID,94,VALID,0.575036,
2004-03-26, 02:06:00,VALID,916.789,VALID,0,VALID,98.6625,VALID,0.0339617,VALID,19.7559,VALID,105,VALID,0.751598,
2004-03-26, 02:07:00,VALID,916.774,VALID,0,VALID,98.6651,VALID,0.0339617,VALID,19.7069,VALID,105,VALID,0.74814,
2004-03-26, 02:08:00,VALID,916.771,VALID,0,VALID,98.7681,VALID,0.0509425,VALID,19.697,VALID,105,VALID,0.525915,
2004-03-26, 02:09:00,VALID,916.751,VALID,0,VALID,98.5188,VALID,0.0169808,VALID,19.6426,VALID,104,VALID,0.361506,
2004-03-26, 02:10:00,VALID,916.756,VALID,0,VALID,98.1666,VALID,0.0509425,VALID,19.5684,VALID,101,VALID,0.365663,
2004-03-26, 02:11:00,VALID,916.754,VALID,0,VALID,97.9759,VALID,0.0339617,VALID,19.5204,VALID,73,VALID,0.523026,
2004-03-26, 02:12:00,VALID,916.741,VALID,0,VALID,98.0611,VALID,0,VALID,19.5072,VALID,68,VALID,0.542708,
2004-03-26, 02:13:00,VALID,916.728,VALID,0,VALID,98.159,VALID,0,VALID,19.4814,VALID,62,VALID,0.461868,
2004-03-26, 02:14:00,VALID,916.718,VALID,0,VALID,98.4565,VALID,0.0169808,VALID,19.4814,VALID,62,VALID,0.363715,
2004-03-26, 02:15:00,VALID,916.711,VALID,0,VALID,98.6435,VALID,0,VALID,19.4916,VALID,62,VALID,0.254102,
2004-03-26, 02:16:00,VALID,916.698,VALID,0,VALID,98.7134,VALID,-0.0169808,VALID,19.4884,VALID,62,VALID,0.206364,
2004-03-26, 02:17:00,VALID,916.692,VALID,0,VALID,98.7719,VALID,0,VALID,19.4914,VALID,62,VALID,0.0223818,
2004-03-26, 02:18:00,VALID,916.678,VALID,0,VALID,98.8355,VALID,0.0169808,VALID,19.5005,VALID,62,VALID,0,
2004-03-26, 02:19:00,VALID,916.683,VALID,0,VALID,98.941,VALID,0,VALID,19.5368,VALID,62,VALID,0,
2004-03-26, 02:20:00,VALID,916.688,VALID,0,VALID,98.9079,VALID,0,VALID,19.546,VALID,62,VALID,0,
2004-03-26, 02:21:00,VALID,916.674,VALID,0,VALID,98.997,VALID,0.0169808,VALID,19.5751,VALID,62,VALID,0,
2004-03-26, 02:22:00,VALID,916.678,VALID,0,VALID,99.0631,VALID,0,VALID,19.6073,VALID,62,VALID,0,
2004-03-26, 02:23:00,VALID,916.666,VALID,0,VALID,99.0758,VALID,-0.0169808,VALID,19.6299,VALID,62,VALID,0,
2004-03-26, 02:24:00,VALID,916.66,VALID,0,VALID,98.9575,VALID,-0.0169808,VALID,19.6533,VALID,62,VALID,0,
2004-03-26, 02:25:00,VALID,916.652,VALID,0,VALID,98.913,VALID,0,VALID,19.6463,VALID,62,VALID,0,
2004-03-26, 02:26:00,VALID,916.654,VALID,0,VALID,99.0148,VALID,0,VALID,19.6913,VALID,62,VALID,0.00545058,
2004-03-26, 02:27:00,VALID,916.651,VALID,0,VALID,98.9868,VALID,0.0169808,VALID,19.7206,VALID,62,VALID,0,
2004-03-26, 02:28:00,VALID,916.639,VALID,0,VALID,98.8151,VALID,-0.0339617,VALID,19.7338,VALID,62,VALID,0,
2004-03-26, 02:29:00,VALID,916.65,VALID,0,VALID,98.3815,VALID,0,VALID,19.698,VALID,62,VALID,0,
2004-03-26, 02:30:00,VALID,916.638,VALID,0,VALID,98.0344,VALID,0.0339617,VALID,19.6588,VALID,62,VALID,0.0768532,
2004-03-26, 02:31:00,VALID,916.652,VALID,0,VALID,97.9403,VALID,0,VALID,19.6625,VALID,62,VALID,0.412246,
2004-03-26, 02:32:00,VALID,916.636,VALID,0,VALID,97.8042,VALID,0.0169808,VALID,19.6461,VALID,55,VALID,0.573171,
2004-03-26, 02:33:00,VALID,916.64,VALID,0,VALID,97.4952,VALID,0,VALID,19.6078,VALID,51,VALID,0.442361,
2004-03-26, 02:34:00,VALID,916.648,VALID,0,VALID,97.4774,VALID,0.0339617,VALID,19.5654,VALID,51,VALID,0.539621,
2004-03-26, 02:35:00,VALID,916.649,VALID,0,VALID,97.5677,VALID,0,VALID,19.5289,VALID,50,VALID,0.401325,
2004-03-26, 02:36:00,VALID,916.656,VALID,0,VALID,97.8881,VALID,0.0169808,VALID,19.5525,VALID,50,VALID,0.491655,
2004-03-26, 02:37:00,VALID,916.652,VALID,0,VALID,98.0153,VALID,0,VALID,19.5522,VALID,50,VALID,0.587612,
2004-03-26, 02:38:00,VALID,916.656,VALID,0,VALID,98.0814,VALID,0.0339617,VALID,19.5654,VALID,48,VALID,0.640997,
2004-03-26, 02:39:00,VALID,916.635,VALID,0,VALID,98.07,VALID,0,VALID,19.5621,VALID,47,VALID,0.803052,
2004-03-26, 02:40:00,VALID,916.643,VALID,0,VALID,98.1094,VALID,0.0169808,VALID,19.5748,VALID,47,VALID,0.904204,
2004-03-26, 02:41:00,VALID,916.625,VALID,0,VALID,98.0839,VALID,0.0339617,VALID,19.5718,VALID,47,VALID,0.821948,
2004-03-26, 02:42:00,VALID,916.609,VALID,0,VALID,98.0267,VALID,0.0169808,VALID,19.5845,VALID,47,VALID,0.662388,
2004-03-26, 02:43:00,VALID,916.586,VALID,0,VALID,98,VALID,0,VALID,19.581,VALID,50,VALID,0.736662,
2004-03-26, 02:44:00,VALID,916.564,VALID,0,VALID,98.0725,VALID,0.0169808,VALID,19.6168,VALID,57,VALID,0.79173,
2004-03-26, 02:45:00,VALID,916.538,VALID,0,VALID,98.0979,VALID,0.0169808,VALID,19.6498,VALID,75,VALID,0.661644,
2004-03-26, 02:46:00,VALID,916.511,VALID,0,VALID,98.0763,VALID,0.0339617,VALID,19.662,VALID,89,VALID,0.676082,
2004-03-26, 02:47:00,VALID,916.487,VALID,0,VALID,98.0509,VALID,0.0169808,VALID,19.6848,VALID,112,VALID,0.871838,
2004-03-26, 02:48:00,VALID,916.471,VALID,0,VALID,98.0293,VALID,0.0339617,VALID,19.7271,VALID,113,VALID,0.884266,
2004-03-26, 02:49:00,VALID,916.45,VALID,0,VALID,97.8703,VALID,0.0169808,VALID,19.7271,VALID,116,VALID,0.765439,
2004-03-26, 02:50:00,VALID,916.452,VALID,0,VALID,97.9504,VALID,-0.0169808,VALID,19.73,VALID,124,VALID,0.931868,
2004-03-26, 02:51:00,VALID,916.448,VALID,0,VALID,98.0839,VALID,0.0169808,VALID,19.743,VALID,125,VALID,0.888808,
2004-03-26, 02:52:00,VALID,916.466,VALID,0,VALID,98.0712,VALID,0.0509425,VALID,19.7397,VALID,132,VALID,0.839208,
2004-03-26, 02:53:00,VALID,916.479,VALID,0,VALID,98.1043,VALID,0.0509425,VALID,19.7333,VALID,132,VALID,0.816315,
2004-03-26, 02:54:00,VALID,916.485,VALID,0,VALID,98.0293,VALID,0.0169808,VALID,19.7171,VALID,126,VALID,0.466922,
2004-03-26, 02:55:00,VALID,916.504,VALID,0,VALID,97.9441,VALID,0.0339617,VALID,19.6945,VALID,124,VALID,0.215216,
2004-03-26, 02:56:00,VALID,916.5,VALID,0,VALID,97.7851,VALID,0,VALID,19.6558,VALID,82,VALID,0.556286,
2004-03-26, 02:57:00,VALID,916.506,VALID,0,VALID,97.7889,VALID,0,VALID,19.6332,VALID,70,VALID,0.876488,
2004-03-26, 02:58:00,VALID,916.486,VALID,0,VALID,97.9352,VALID,0.0339617,VALID,19.6533,VALID,69,VALID,0.990734,
2004-03-26, 02:59:00,VALID,916.482,VALID,0,VALID,98.1157,VALID,0.0509425,VALID,19.6533,VALID,72,VALID,0.792039,
2004-03-26, 03:00:00,VALID,916.46,VALID,0,VALID,98.1997,VALID,0,VALID,19.6329,VALID,80,VALID,0.813743,
2004-03-26, 03:01:00,VALID,916.45,VALID,0,VALID,98.3942,VALID,0.0509425,VALID,19.6394,VALID,91,VALID,0.709087,
2004-03-26, 03:02:00,VALID,916.445,VALID,0,VALID,98.4616,VALID,0.0339617,VALID,19.6468,VALID,88,VALID,0.708031,
2004-03-26, 03:03:00,VALID,916.419,VALID,0,VALID,98.5862,VALID,0.0509425,VALID,19.6232,VALID,95,VALID,0.729911,
2004-03-26, 03:04:00,VALID,916.426,VALID,0,VALID,98.7045,VALID,0.0169808,VALID,19.6367,VALID,96,VALID,0.693359,
2004-03-26, 03:05:00,VALID,916.439,VALID,0,VALID,98.6892,VALID,0.0169808,VALID,19.6332,VALID,95,VALID,0.746548,
2004-03-26, 03:06:00,VALID,916.469,VALID,0,VALID,98.5672,VALID,0,VALID,19.6163,VALID,108,VALID,0.697443,
2004-03-26, 03:07:00,VALID,916.494,VALID,0,VALID,98.5188,VALID,0.0169808,VALID,19.6044,VALID,117,VALID,0.709604,
2004-03-26, 03:08:00,VALID,916.516,VALID,0,VALID,98.482,VALID,0.0339617,VALID,19.5842,VALID,121,VALID,0.562326,
2004-03-26, 03:09:01,VALID,916.526,VALID,0,VALID,98.4349,VALID,0.0169808,VALID,19.5656,VALID,121,VALID,0.464334,
2004-03-26, 03:10:00,VALID,916.542,VALID,0,VALID,98.4527,VALID,0.0679233,VALID,19.546,VALID,121,VALID,0.381177,
2004-03-26, 03:11:00,VALID,916.552,VALID,0,VALID,98.1564,VALID,0.0339617,VALID,19.4911,VALID,121,VALID,0.362305,
2004-03-26, 03:12:00,VALID,916.544,VALID,0,VALID,98.0102,VALID,0.0339617,VALID,19.436,VALID,121,VALID,0.36109,
2004-03-26, 03:13:00,VALID,916.526,VALID,0,VALID,98.0839,VALID,0.0339617,VALID,19.4104,VALID,120,VALID,0.411776,
2004-03-26, 03:14:00,VALID,916.508,VALID,0,VALID,98.351,VALID,0.0339617,VALID,19.394,VALID,120,VALID,0.420455,
2004-03-26, 03:15:00,VALID,916.49,VALID,0,VALID,98.234,VALID,0,VALID,19.3875,VALID,120,VALID,0.181818,
2004-03-26, 03:16:00,VALID,916.471,VALID,0,VALID,98.5417,VALID,0.0509425,VALID,19.3848,VALID,117,VALID,0.67223,
2004-03-26, 03:17:00,VALID,916.455,VALID,0,VALID,99.0427,VALID,0.0509425,VALID,19.4486,VALID,115,VALID,0.623326,
2004-03-26, 03:18:01,VALID,916.434,VALID,0,VALID,99.016,VALID,0.0509425,VALID,19.4909,VALID,112,VALID,0.623884,
2004-03-26, 03:19:00,VALID,916.425,VALID,0,VALID,99.0249,VALID,0.0679233,VALID,19.5236,VALID,111,VALID,0.707304,
2004-03-26, 03:20:00,VALID,916.409,VALID,0,VALID,98.838,VALID,0,VALID,19.5594,VALID,94,VALID,0.650521,
2004-03-26, 03:21:00,VALID,916.407,VALID,0,VALID,98.6714,VALID,0,VALID,19.546,VALID,84,VALID,0.663517,
2004-03-26, 03:22:00,VALID,916.406,VALID,0,VALID,98.5875,VALID,0.0339617,VALID,19.5621,VALID,86,VALID,0.722561,
2004-03-26, 03:23:00,VALID,916.383,VALID,0,VALID,98.2696,VALID,0,VALID,19.5331,VALID,86,VALID,0.719512,
2004-03-26, 03:24:00,VALID,916.373,VALID,0,VALID,98.2391,VALID,0.0169808,VALID,19.5234,VALID,86,VALID,0.810938,
2004-03-26, 03:25:01,VALID,916.37,VALID,0,VALID,98.2187,VALID,0.0339617,VALID,19.5229,VALID,78,VALID,1.0158,
2004-03-26, 03:26:01,VALID,916.379,VALID,0,VALID,98.0649,VALID,0.0339617,VALID,19.5204,VALID,75,VALID,0.923931,
2004-03-26, 03:27:00,VALID,916.388,VALID,0,VALID,98.0433,VALID,0.0509425,VALID,19.5301,VALID,73,VALID,0.899325,
2004-03-26, 03:28:00,VALID,916.394,VALID,0,VALID,98.07,VALID,0.0509425,VALID,19.5428,VALID,73,VALID,0.78125,
2004-03-26, 03:29:00,VALID,916.412,VALID,0,VALID,97.6783,VALID,0.0509425,VALID,19.5266,VALID,73,VALID,0.415516,
2004-03-26, 03:30:00,VALID,916.432,VALID,0,VALID,97.5143,VALID,0.0339617,VALID,19.5172,VALID,73,VALID,0.161395,
2004-03-26, 03:31:01,VALID,916.448,VALID,0,VALID,97.3655,VALID,-0.0169808,VALID,19.5052,VALID,73,VALID,0,
2004-03-26, 03:32:01,VALID,916.461,VALID,0,VALID,97.4138,VALID,-0.0679233,VALID,19.4965,VALID,73,VALID,0,
2004-03-26, 03:33:01,VALID,916.48,VALID,0,VALID,97.5206,VALID,-0.0849042,VALID,19.4861,VALID,73,VALID,0,
2004-03-26, 03:34:00,VALID,916.477,VALID,0,VALID,97.6681,VALID,-0.0849042,VALID,19.4926,VALID,73,VALID,0,
2004-03-26, 03:35:01,VALID,916.484,VALID,0,VALID,97.7508,VALID,-0.101885,VALID,19.5159,VALID,73,VALID,0,
2004-03-26, 03:36:00,VALID,916.468,VALID,0,VALID,97.8423,VALID,-0.0679233,VALID,19.5251,VALID,73,VALID,0,
2004-03-26, 03:37:00,VALID,916.46,VALID,0,VALID,97.9237,VALID,-0.101885,VALID,19.548,VALID,73,VALID,0,
2004-03-26, 03:38:00,VALID,916.448,VALID,0,VALID,98.0433,VALID,-0.0509425,VALID,19.5803,VALID,73,VALID,0,
2004-03-26, 03:39:01,VALID,916.421,VALID,0,VALID,98.1374,VALID,-0.101885,VALID,19.6029,VALID,73,VALID,0,
2004-03-26, 03:40:00,VALID,916.405,VALID,0,VALID,98.0789,VALID,-0.0679233,VALID,19.5996,VALID,73,VALID,0,